Theta_e
309 310 310 310 309 309 309 309 310 311 312 314 315 317 318 316 315 319 322 325 325 325 327 329 333 334 335 337 338 336 343 343 341 341 339 333 336 335 337 342 341 342 342 340 343
309 309 310 309 310 310 309 310 310 311 312 314 315 317 317 317 318 321 325 324 326 326 326 329 332 335 337 337 339 340 341 339 335 335 337 335 336 338 338 343 343 342 342 343 344
309 309 309 310 310 310 310 310 311 312 313 314 316 317 317 316 324 328 326 326 323 326 325 325 332 334 337 337 337 335 339 335 333 334 337 337 339 338 341 341 339 340 342 346 345
309 309 309 309 310 310 310 311 313 314 314 315 316 317 318 319 333 328 326 326 323 325 325 327 332 333 334 335 336 337 335 336 337 336 340 340 341 342 342 342 341 340 340 345 346
309 309 309 309 310 310 311 314 316 317 316 316 316 317 317 322 327 326 325 324 324 324 325 328 329 330 329 331 336 337 336 340 339 339 341 340 343 344 343 345 342 340 338 343 344
309 309 309 309 310 310 313 316 318 319 318 317 317 317 320 327 325 327 326 324 325 324 326 327 330 329 329 330 335 335 338 341 341 341 341 342 343 343 344 346 340 340 339 338 338
309 309 308 309 309 310 315 317 318 320 320 318 318 317 319 327 325 326 327 326 326 326 328 328 328 330 327 331 334 338 342 340 340 340 342 339 342 346 346 345 343 342 339 338 337
309 308 308 308 310 312 315 317 320 319 319 318 317 317 320 320 322 324 326 325 326 326 327 327 326 328 327 332 333 338 339 342 339 341 340 340 346 346 342 345 343 340 339 342 342
308 308 308 308 309 313 316 319 319 319 317 317 318 317 322 322 325 326 326 326 328 328 326 325 324 327 327 328 332 333 336 340 342 342 344 342 344 344 341 342 344 344 344 342 339
307 307 307 308 309 312 316 317 318 320 319 320 321 321 322 326 324 324 325 325 329 328 328 328 328 330 328 330 335 337 337 339 341 344 340 341 342 342 341 339 342 341 340 342 341
306 307 308 308 309 312 317 316 317 319 317 318 317 320 322 321 321 324 324 327 327 329 331 328 330 331 329 328 328 329 336 341 343 342 343 343 344 341 340 340 343 343 341 343 342
305 306 306 308 309 312 315 315 314 314 318 315 315 316 317 318 322 324 325 330 329 329 328 329 331 328 327 327 332 335 339 343 344 341 342 343 342 341 339 340 341 341 341 343 340
305 304 305 308 310 311 314 312 312 313 318 318 318 318 320 320 324 325 326 326 327 328 328 330 329 326 327 329 333 336 339 344 342 341 341 342 343 340 340 341 340 340 341 341 338
303 305 304 307 309 308 311 310 313 312 322 323 321 320 320 322 325 323 324 327 327 328 328 329 327 327 329 329 328 332 333 341 343 341 344 341 343 343 343 343 340 340 340 338 338
303 304 304 304 307 309 310 311 315 316 329 324 321 320 319 324 325 325 324 327 328 328 328 329 328 328 329 329 327 333 337 340 339 343 343 343 344 342 340 341 341 340 339 339 338
304 304 304 308 307 310 310 313 317 328 330 325 321 322 323 322 324 324 326 326 325 326 326 328 325 327 328 332 330 335 338 338 337 339 344 342 345 340 339 340 341 340 339 339 339
304 304 305 307 310 310 312 319 329 334 330 322 322 321 322 323 324 325 326 328 330 331 331 329 328 326 328 336 334 335 342 343 344 344 344 340 344 342 340 338 340 341 341 340 339
304 306 308 311 315 315 316 328 335 332 330 326 319 320 323 323 324 325 326 327 326 328 329 330 330 329 330 333 337 338 338 339 342 340 339 341 347 341 339 339 339 340 340 339 339
304 307 310 317 316 317 319 328 333 333 328 325 322 322 322 321 323 324 327 326 327 329 331 331 330 327 329 333 333 335 337 334 341 338 343 344 342 341 338 338 341 341 341 341 339
305 308 311 318 317 312 318 318 326 327 325 325 327 322 324 321 323 324 325 326 326 327 329 332 331 327 331 331 332 335 332 338 338 346 344 343 345 342 341 342 342 342 341 340 338
306 312 314 317 315 320 318 316 318 321 322 326 328 328 330 330 322 324 325 325 326 325 327 329 333 330 330 334 336 335 337 336 338 340 345 340 339 341 341 341 343 341 339 338 337
304 312 310 317 324 316 320 319 318 322 324 327 327 327 332 331 327 323 324 326 329 327 329 330 335 332 336 332 332 334 338 339 338 342 342 344 342 339 339 341 340 340 339 338 337
309 309 312 316 325 323 321 322 321 323 326 327 329 329 333 337 338 332 325 329 333 328 332 331 337 337 339 336 333 337 336 334 337 342 347 343 340 338 339 341 339 339 339 338 337
309 315 322 319 318 323 326 325 329 326 325 327 329 331 334 338 337 338 335 334 334 337 333 339 340 339 331 335 336 338 336 335 338 342 342 341 343 342 343 344 342 341 339 337 336
311 316 318 324 323 323 325 327 328 330 329 327 329 333 337 339 338 338 337 333 333 335 336 342 343 337 336 335 336 335 335 336 337 337 340 342 341 344 343 344 341 340 337 336 336
318 320 317 320 320 323 322 326 327 330 331 329 331 332 336 340 339 339 338 335 337 333 340 337 344 339 340 337 335 336 337 338 337 338 339 342 344 342 342 339 339 339 337 336 336
307 309 317 315 322 323 326 324 327 326 331 330 332 336 339 336 333 336 334 335 336 337 340 344 344 342 340 338 336 338 337 336 342 341 341 344 342 342 341 339 340 339 337 337 338
Wind_Speed
28 27 27 27 27 25 22 21 18 16 14 12 12 13 12 13 15 7 5 3 5 7 7 9 5 5 3 2 2 1 2 3 2 4 2 6 6 5 2 7 4 3 1 3 18
30 29 29 29 28 27 23 22 18 15 13 10 12 12 12 14 10 7 4 5 7 7 7 6 4 6 3 3 4 4 2 2 2 3 6 10 11 9 6 7 2 3 6 11 18
29 30 30 30 29 28 25 24 18 14 12 9 10 10 10 12 3 0 2 7 9 7 2 3 7 2 2 2 4 3 2 2 4 7 9 12 7 1 1 4 4 3 7 12 16
31 32 32 31 30 28 29 22 16 13 10 8 9 9 9 3 2 1 3 6 10 7 5 4 4 3 2 2 3 3 1 3 5 3 0 3 7 1 1 5 4 2 9 15 15
32 33 34 33 32 30 28 20 17 13 10 9 7 7 3 2 4 2 1 6 9 7 6 4 4 3 2 2 2 3 0 4 3 6 4 3 5 3 6 9 7 3 11 11 11
33 34 34 34 32 34 25 23 17 12 10 8 5 3 1 4 2 2 2 5 5 7 6 6 3 2 1 1 4 2 2 5 3 4 3 1 2 0 4 6 6 3 3 5 9
33 35 35 35 33 32 24 23 14 9 6 5 4 3 1 6 1 2 3 2 4 4 6 1 1 3 1 2 2 8 5 2 1 4 1 2 0 4 5 5 7 6 3 4 7
34 35 36 37 36 27 24 15 8 6 3 4 4 2 5 3 4 4 7 7 6 8 6 5 1 1 1 3 3 3 3 2 3 4 1 3 1 4 4 2 4 3 1 3 5
35 35 36 37 37 23 21 8 7 10 6 6 3 1 4 4 4 2 4 2 1 0 2 2 2 2 2 1 3 1 1 3 2 6 2 3 1 1 2 3 2 4 1 3 3
36 35 36 36 37 21 18 3 3 3 4 3 3 1 3 0 3 2 4 2 0 1 1 3 3 2 2 3 2 3 1 1 1 4 2 1 1 1 3 6 4 3 1 2 5
35 35 35 35 34 18 16 3 5 2 5 2 2 4 3 10 6 3 3 6 2 3 0 3 2 5 10 3 2 5 3 2 0 2 3 3 4 4 5 5 4 1 1 2 4
35 35 36 34 26 15 8 6 4 3 6 2 6 6 8 3 4 3 7 3 2 2 1 2 2 2 6 1 3 3 4 3 1 1 2 4 8 5 6 0 3 4 3 4 6
34 36 36 33 15 14 6 8 7 2 2 5 3 3 2 7 3 3 6 3 2 2 2 3 3 2 3 4 4 2 7 6 2 1 4 7 3 2 2 3 5 3 3 2 8
34 34 35 36 5 17 2 5 16 9 1 3 3 3 4 3 4 5 4 3 2 3 2 5 1 2 8 2 3 7 4 3 6 3 2 5 4 1 1 7 2 2 2 4 7
33 32 34 32 13 6 3 14 3 3 1 1 3 2 2 5 2 3 1 1 5 4 3 3 3 3 7 3 3 2 7 9 5 4 4 3 4 2 2 5 6 3 2 2 3
32 32 35 14 13 6 9 13 4 2 2 2 3 4 5 1 1 1 2 4 3 3 1 6 2 3 1 5 4 12 15 9 3 1 3 2 2 3 4 4 5 5 7 6 6
32 31 29 13 4 11 12 1 2 1 1 1 2 3 3 3 3 1 2 3 3 3 2 3 1 2 2 6 3 3 7 3 2 3 3 1 4 5 5 3 4 9 11 9 8
32 29 19 7 9 9 1 2 1 0 2 1 1 3 6 6 4 3 3 3 1 2 2 1 4 1 3 1 3 7 1 3 4 3 1 3 3 2 3 10 8 7 9 8 11
30 17 6 8 6 2 0 2 2 0 2 4 2 3 3 2 2 4 5 5 5 9 4 3 3 1 2 2 1 4 5 3 5 1 2 1 3 5 1 5 8 8 9 12 13
22 11 5 11 2 1 1 2 2 2 4 1 1 2 2 3 6 5 7 3 6 11 1 4 3 0 2 4 9 2 6 2 1 3 3 2 4 3 3 5 8 11 13 14 13
7 3 2 7 3 3 1 2 4 4 3 3 2 1 2 3 5 3 3 1 2 3 3 5 2 1 2 2 1 3 2 4 2 2 2 2 2 4 3 3 7 9 10 9 10
4 2 5 1 1 1 1 2 4 4 1 1 2 1 1 3 4 4 5 3 2 7 7 3 3 2 1 2 3 1 1 3 3 3 1 3 2 3 3 0 2 7 8 8 9
2 3 3 3 2 1 3 3 3 3 4 3 2 2 1 1 2 4 3 2 2 7 6 8 2 2 2 2 3 2 2 3 4 0 6 4 2 3 3 6 6 7 7 8 9
1 1 2 3 2 2 1 2 5 3 3 3 3 1 1 1 1 2 2 1 2 2 4 6 3 3 5 1 1 2 3 3 3 3 3 7 4 5 5 5 5 6 6 7 7
2 2 2 1 2 2 1 1 3 4 2 2 2 4 0 1 1 2 1 1 3 3 2 2 3 2 1 2 4 3 5 6 8 5 5 5 6 6 6 5 4 5 5 5 7
0 0 1 1 2 2 1 1 2 4 2 2 4 10 1 2 1 3 1 3 1 3 2 2 3 2 2 3 2 4 6 6 7 4 7 3 5 4 4 4 4 3 2 5 7
1 1 2 1 0 2 2 1 2 4 3 5 7 5 3 4 6 7 5 4 1 2 2 1 4 4 3 3 0 6 9 9 3 5 4 7 3 9 7 5 3 2 1 4 5
Wind_Direction
9 7 5 2 1 357 353 347 344 340 338 337 342 343 336 325 319 306 253 212 176 172 163 147 114 107 106 84 73 174 272 249 231 204 176 167 163 174 157 143 144 116 353 84 150
5 5 2 359 358 353 349 342 337 333 328 332 333 340 332 325 318 255 248 197 189 176 165 154 145 153 118 130 178 201 224 258 258 221 204 183 183 158 167 137 132 160 87 131 155
5 3 1 356 354 350 346 339 332 327 318 320 327 335 329 332 298 219 272 211 200 173 182 161 119 131 131 207 200 154 294 291 245 244 181 174 157 159 200 165 171 174 143 159 171
3 1 359 355 351 348 343 338 332 321 306 308 319 328 324 338 187 77 40 128 171 177 163 144 140 153 193 231 189 248 213 264 338 205 26 138 118 64 339 39 359 236 171 173 187
1 359 356 355 349 348 341 340 328 307 292 292 307 320 327 228 252 344 174 149 163 186 196 217 190 153 302 224 211 238 66 75 89 106 92 60 47 59 55 3 353 86 158 189 205
360 357 355 352 349 346 341 340 325 304 280 272 278 284 145 238 299 330 165 164 210 213 187 184 320 315 275 188 241 136 78 85 56 61 93 116 50 350 44 1 70 93 178 207 224
357 355 354 352 349 345 347 339 335 322 273 234 224 189 164 235 194 353 170 220 268 276 315 64 97 300 110 146 111 126 116 88 339 343 110 347 193 57 357 21 68 87 168 230 249
354 353 352 352 349 346 349 346 6 40 85 144 154 152 245 251 262 279 252 269 265 260 269 333 64 151 26 116 81 159 151 224 54 338 47 302 357 86 4 152 104 113 31 309 293
351 351 351 352 350 349 349 9 59 63 76 116 124 161 254 287 268 211 218 228 238 281 46 55 67 35 136 99 154 107 149 233 157 11 285 253 353 97 152 6 332 17 53 323 319
350 348 349 351 349 352 351 7 38 23 52 86 80 200 258 350 311 286 268 202 137 357 60 36 33 318 26 336 121 77 71 222 255 7 24 167 235 217 271 335 252 161 96 266 299
348 345 348 350 348 354 3 352 4 4 27 304 300 289 297 317 288 227 201 118 104 65 350 20 306 357 342 315 165 151 161 216 137 82 283 331 284 263 301 295 263 203 342 246 325
346 345 345 348 350 359 31 71 78 320 308 276 253 263 265 271 306 227 163 166 157 147 196 257 220 291 322 136 138 143 178 205 229 353 315 2 310 315 349 350 264 326 330 25 19
343 344 343 346 352 1 54 107 347 168 267 296 239 240 241 171 239 251 179 151 135 182 216 243 285 292 345 342 258 266 228 185 261 97 95 322 260 14 46 319 325 318 241 29 18
340 341 341 342 5 344 294 325 336 169 336 271 229 250 173 189 248 211 207 151 136 239 194 258 221 308 330 307 215 292 294 160 145 174 321 357 330 145 348 317 4 343 260 359 356
337 338 335 336 305 299 285 327 355 158 86 116 177 10 108 195 342 148 188 112 199 204 207 274 257 279 308 12 227 358 113 105 89 58 319 36 291 34 343 55 31 75 42 3 2
332 334 328 330 310 288 307 329 152 250 69 95 135 157 150 337 11 327 136 66 80 133 275 276 306 250 60 47 118 138 104 93 93 34 267 42 319 318 5 5 335 306 306 309 328
328 330 320 308 277 303 317 223 170 264 308 40 155 153 145 154 219 14 136 132 192 178 241 310 280 285 149 110 174 178 157 127 207 238 279 207 222 280 292 323 317 323 331 342 330
327 326 319 313 304 313 307 161 185 52 340 5 71 116 187 160 203 169 148 215 151 108 126 322 181 207 122 281 221 171 249 209 209 203 301 171 240 94 348 316 297 309 324 337 360
329 328 317 334 333 7 193 190 171 306 325 328 103 161 181 177 210 195 220 238 224 184 208 174 257 320 64 114 252 154 216 73 107 34 252 337 261 266 47 40 26 16 5 2 1
331 327 302 354 189 5 84 232 232 207 336 301 221 195 146 171 183 193 182 208 225 200 223 191 267 26 82 139 59 241 123 195 116 164 233 233 276 253 309 16 17 11 1 357 5
344 325 335 343 343 49 272 254 289 268 229 216 358 124 168 166 193 191 208 194 212 140 138 140 219 221 250 19 307 160 182 68 99 306 213 236 220 195 194 40 10 13 27 30 34
354 277 351 30 345 39 291 297 315 291 324 301 255 298 298 161 156 213 228 243 160 167 165 165 142 217 99 3 280 329 145 177 258 205 221 311 250 56 245 343 35 70 57 49 37
354 287 355 37 241 106 311 295 282 312 326 352 318 47 64 175 202 209 205 233 302 182 164 176 190 171 144 177 168 247 126 89 96 193 208 229 197 26 145 116 73 73 57 53 29
286 324 322 60 14 110 34 347 318 300 274 293 294 290 110 196 243 182 204 26 88 161 84 113 135 198 248 196 112 220 198 171 186 224 186 235 158 145 146 126 104 95 63 35 17
358 95 357 86 84 57 200 331 322 338 300 307 201 20 219 314 272 171 183 149 106 147 57 155 168 176 196 241 198 224 237 189 209 228 250 341 213 159 175 150 121 94 57 21 9
80 281 127 324 297 215 342 136 310 328 288 35 12 334 222 109 356 309 272 210 175 120 77 11 146 152 188 347 250 273 265 256 250 238 235 224 215 167 184 175 135 108 50 9 1
97 127 272 58 343 216 163 136 152 350 233 258 327 304 84 22 318 288 293 335 71 132 116 64 148 169 209 37 277 272 260 232 214 201 204 228 232 165 191 179 158 187 21 343 348